Wind_Speed
22 20 19 20 21 21 30 40 43 36 23 50 50 52 46 49 47 27 19 17 18 23 30 22 30 28 25 18 25 36 38 16 21 34 22 24 21 27 27 20 16 20 22 27
25 24 23 24 24 24 22 31 39 48 22 55 42 51 52 42 30 25 30 16 13 15 17 24 24 27 18 19 18 27 33 21 17 22 25 26 25 25 27 32 28 28 20 33
26 26 27 27 26 22 22 27 28 40 37 53 48 48 45 34 36 31 24 27 18 15 14 16 9 15 14 14 9 19 24 20 24 16 22 19 18 22 22 26 31 37 37 34
27 29 29 28 26 20 23 29 33 37 36 44 60 57 40 36 36 35 20 18 21 23 16 22 20 12 6 6 9 10 18 14 17 20 20 18 15 19 28 28 28 28 35 27
29 30 31 30 24 23 28 32 31 26 49 41 52 54 45 34 34 35 37 37 24 17 19 23 25 24 13 15 11 17 8 12 14 20 24 21 20 29 32 32 26 27 26 31
30 30 31 29 27 26 34 35 35 35 32 45 39 48 52 41 32 33 33 35 37 19 22 18 24 19 18 18 17 23 17 17 15 26 27 26 28 48 32 34 34 32 35 33
31 31 31 31 29 30 34 35 35 38 43 41 36 48 45 34 35 30 28 28 28 28 24 27 25 20 22 22 21 19 20 19 20 26 24 21 38 32 28 31 32 33 34 33
30 32 32 32 32 30 35 36 42 42 25 35 37 44 44 36 31 34 26 29 25 25 23 19 17 21 29 33 35 39 37 27 24 11 12 14 15 18 16 19 23 24 23 25
31 31 33 33 33 32 38 41 44 36 37 36 36 38 40 38 39 27 32 32 33 28 24 20 11 6 8 7 9 18 31 33 32 17 3 4 21 19 16 23 21 24 21 21
28 30 33 35 36 34 38 42 43 35 30 29 26 39 43 26 25 23 29 30 30 28 21 15 10 13 11 9 8 8 20 28 34 32 19 18 40 27 24 26 28 13 18 20
29 32 30 30 40 37 39 36 37 34 32 26 27 25 27 26 29 30 21 17 16 20 19 11 9 12 13 15 19 15 12 9 16 21 22 20 20 19 20 22 27 25 24 20
31 23 21 25 28 34 40 39 32 34 33 26 24 27 25 21 21 18 18 17 15 20 14 13 10 13 13 17 24 21 27 28 21 12 8 12 13 17 15 15 23 23 19 20
18 15 21 28 25 27 43 39 45 43 40 32 34 34 27 26 24 18 25 19 13 12 15 16 13 12 11 19 25 23 27 24 29 30 35 27 25 26 26 24 19 23 22 23
9 14 12 24 23 23 22 36 30 19 25 18 24 32 25 25 23 26 17 12 9 15 12 15 16 15 14 14 17 19 20 15 20 25 31 22 20 20 19 23 25 28 25 23
15 19 23 28 25 21 22 25 20 20 16 15 15 19 22 22 21 21 22 25 19 15 20 21 21 19 17 23 22 30 24 20 22 27 20 20 21 23 27 26 25 22 23 23
21 23 20 22 23 20 19 21 20 20 15 19 10 15 14 16 19 21 21 21 24 20 22 18 17 19 18 14 16 14 13 20 24 12 21 24 27 23 17 16 16 19 24 22
10 18 18 19 19 19 16 13 16 16 16 15 11 9 17 18 23 29 29 24 26 25 23 23 19 15 16 23 28 24 20 28 26 17 20 20 19 19 17 17 17 18 21 20
13 14 16 17 17 14 12 11 10 15 14 13 6 7 13 18 24 25 27 25 25 24 25 21 16 13 19 24 30 27 24 24 20 20 19 17 19 15 15 16 18 19 20 20
13 16 16 15 15 13 9 8 7 10 13 10 9 10 9 18 22 24 24 27 24 24 25 20 14 16 13 20 18 18 19 11 14 14 14 13 14 15 15 14 15 18 19 18
13 13 13 13 14 12 8 5 4 4 7 12 14 13 14 4 10 16 18 23 18 15 25 20 23 31 29 23 19 17 9 10 11 11 10 10 11 12 12 12 13 14 13 14
16 16 15 11 11 8 5 6 5 5 5 7 7 12 15 19 13 23 21 11 14 10 13 12 9 20 21 17 14 18 15 14 11 10 8 10 10 10 10 11 12 12 11 12
17 14 13 12 10 6 5 4 5 7 6 9 11 17 23 25 19 19 27 13 10 7 16 13 6 13 15 20 21 14 15 12 10 9 10 10 9 10 11 11 11 11 10 10
17 13 13 11 7 6 5 6 7 6 4 6 8 6 10 10 10 7 8 5 4 6 5 3 5 9 13 14 14 13 14 12 11 10 9 7 7 9 10 9 9 9 8 9
12 9 9 7 4 6 6 10 4 4 1 4 9 10 3 11 7 5 4 3 5 4 4 4 10 9 14 12 13 13 12 10 8 7 6 6 6 5 6 6 6 7 8 9
2 4 3 6 9 9 10 13 9 5 6 8 9 5 3 7 4 4 4 6 4 5 6 11 10 10 10 10 10 11 10 8 7 7 5 4 2 2 2 3 3 5 6 7
5 2 5 3 1 4 6 8 8 7 8 11 8 3 4 4 2 3 3 3 4 9 10 10 10 9 9 11 10 9 8 8 8 7 6 5 4 2 2 3 4 5 6 7
4 4 4 5 6 6 7 8 8 11 12 8 4 3 4 4 3 3 5 7 10 8 8 8 8 10 11 11 10 9 8 8 8 7 7 6 5 2 3 4 6 6 7 8
Wind_Direction
261 269 270 269 278 271 251 254 253 238 233 219 217 218 221 236 229 216 264 246 249 251 231 234 224 229 220 211 199 204 207 220 219 211 211 216 218 221 221 223 234 236 255 260
259 264 268 271 276 275 261 256 259 250 253 219 217 223 230 231 233 232 235 240 228 232 238 246 232 229 215 188 202 200 202 215 219 218 216 219 220 230 230 230 240 243 242 254
258 262 265 270 273 265 258 257 268 258 250 228 222 224 223 227 221 229 238 230 231 250 251 232 242 239 214 178 224 198 195 206 216 222 222 222 223 233 241 244 236 246 245 259
260 262 264 269 266 251 251 251 251 249 237 228 223 223 224 219 225 222 228 234 227 228 238 244 243 228 219 216 216 217 214 215 223 237 251 257 254 251 252 252 260 242 259 260
256 256 260 265 254 246 242 245 237 254 247 242 221 221 218 221 220 219 221 229 223 229 227 236 247 259 264 263 254 241 246 258 274 269 252 265 262 259 255 255 257 266 266 265
260 260 259 255 249 244 240 243 242 238 247 248 251 218 217 220 216 223 225 234 227 227 233 244 251 247 255 251 260 254 266 263 263 265 262 272 262 248 251 254 254 257 263 268
260 255 252 250 245 244 243 243 242 241 245 246 251 222 216 211 218 227 222 221 223 240 242 242 241 254 260 264 257 249 257 250 254 258 259 244 253 257 251 255 263 262 262 266
255 253 254 248 245 244 240 236 234 236 240 239 234 219 215 211 224 224 217 212 212 209 220 227 243 257 264 257 263 253 251 250 257 265 235 263 262 243 250 271 264 253 259 261
263 257 253 251 244 241 237 237 228 236 237 261 225 218 212 221 218 197 203 208 215 215 217 239 198 213 243 243 253 254 241 239 237 239 237 243 263 267 273 274 272 271 277 271
266 258 254 248 243 231 234 237 223 227 239 234 185 200 209 199 205 201 191 203 200 211 206 233 243 242 233 240 242 197 208 227 233 244 253 263 269 272 275 276 265 271 259 260
270 272 258 240 223 224 222 217 217 210 228 229 226 211 197 212 205 196 182 176 198 201 207 201 214 237 232 243 249 247 237 211 222 237 243 255 266 266 250 262 252 263 279 278
276 252 239 215 212 212 205 206 208 204 212 214 208 210 200 186 191 196 195 198 213 214 198 212 225 234 242 248 260 256 253 248 254 243 244 254 270 296 250 270 258 271 272 271
246 237 235 212 217 210 201 193 197 206 212 214 208 198 194 180 179 193 177 184 194 197 204 209 229 243 251 254 260 267 264 260 257 263 264 267 270 270 271 269 250 252 266 276
198 185 184 136 114 157 150 164 163 142 154 163 184 196 204 196 193 204 197 193 202 229 242 233 240 243 258 262 258 259 284 268 260 260 257 244 260 258 256 270 252 263 268 269
138 141 136 132 122 127 136 135 136 146 147 153 183 193 200 208 218 218 215 225 222 222 237 245 246 247 261 266 276 267 268 293 285 278 276 269 266 261 258 238 256 260 261 266
124 126 131 129 132 132 146 158 166 166 161 167 156 192 197 208 215 222 216 210 218 226 233 239 246 244 254 261 260 271 272 266 267 263 257 273 276 276 271 258 261 260 264 265
121 122 135 139 146 151 148 147 152 162 170 168 178 196 214 217 218 218 216 218 223 227 234 243 241 230 240 253 263 274 272 272 275 288 290 283 273 269 261 262 267 266 266 269
167 150 147 158 160 157 162 162 161 174 177 182 164 207 211 209 205 212 212 214 218 224 236 249 251 244 243 258 273 278 285 251 260 278 281 269 267 266 258 261 266 266 266 265
178 173 177 177 180 177 185 185 174 171 191 187 206 199 209 200 196 204 207 209 226 230 238 238 240 234 236 263 275 276 274 247 262 273 268 271 262 259 261 266 270 269 270 262
169 175 175 192 207 205 208 202 235 257 233 224 223 201 224 210 209 213 213 218 218 235 248 246 237 249 254 265 263 262 252 259 266 272 268 270 263 262 268 271 271 277 277 259
163 175 182 189 180 188 209 225 232 258 273 269 261 235 243 235 235 211 199 205 213 228 233 212 238 257 264 243 218 242 253 256 271 263 271 272 270 269 269 276 278 282 280 267
160 169 166 158 166 185 208 240 233 240 250 251 259 237 237 247 247 195 209 222 193 235 195 189 227 226 227 216 241 258 244 249 254 259 262 265 272 275 274 272 272 273 274 270
146 144 152 159 179 195 212 222 230 233 237 190 199 185 158 176 173 136 148 180 192 149 192 214 221 215 225 240 244 244 230 235 242 252 262 271 279 277 278 278 273 270 264 254
137 163 184 231 198 218 215 232 213 244 299 179 149 147 106 118 98 131 145 182 161 190 215 226 247 259 245 244 225 218 215 226 238 247 250 266 274 277 279 283 282 275 268 258
243 205 214 240 230 247 232 220 228 219 169 172 162 126 130 120 136 155 161 173 199 211 227 235 249 255 230 216 203 205 213 223 231 225 231 226 214 215 250 263 272 279 273 264
321 266 276 277 309 261 221 205 191 189 170 159 132 128 152 167 158 174 165 198 217 233 253 259 246 231 210 195 193 199 214 222 215 217 214 208 208 222 255 274 280 286 278 273
264 278 267 209 218 215 196 189 182 179 166 149 136 163 172 171 181 205 209 217 246 273 277 244 222 206 197 195 200 211 219 215 214 216 213 210 222 273 301 296 299 292 279 274
Height
2963 2964 2966 2967 2969 2971 2971 2972 2974 2983 2986 2984 2978 2983 2988 2994 2998 3004 3005 3006 3007 3010 3012 3011 3010 3014 3017 3017 3019 3020 3027 3030 3030 3032 3038 3041 3043 3045 3048 3050 3051 3051 3051 3045
2957 2958 2960 2961 2962 2964 2965 2964 2966 2973 2977 2971 2970 2979 2983 2990 2996 2999 2999 3002 3004 3005 3006 3010 3008 3011 3008 3011 3014 3015 3019 3020 3024 3028 3034 3034 3035 3038 3041 3044 3046 3044 3045 3033
2950 2951 2953 2954 2956 2958 2961 2962 2961 2961 2966 2968 2967 2973 2978 2985 2990 2994 2994 2997 2999 3002 3004 3003 3006 3002 3005 3004 3005 3009 3011 3013 3017 3017 3023 3028 3029 3031 3034 3037 3038 3033 3034 3036
2942 2943 2945 2947 2949 2953 2955 2954 2953 2955 2960 2958 2961 2967 2972 2977 2984 2988 2991 2990 2994 2997 3000 3003 3005 3006 3004 3003 3006 3010 3011 3010 3015 3017 3019 3021 3020 3023 3025 3027 3030 3028 3025 3033
2934 2936 2937 2939 2943 2946 2947 2946 2949 2951 2951 2956 2956 2959 2963 2970 2976 2982 2983 2985 2992 2996 2997 2997 2996 2997 2998 3003 3008 3008 3008 3007 3010 3012 3012 3016 3015 3018 3018 3022 3020 3020 3022 3023
2925 2926 2928 2931 2934 2937 2936 2939 2943 2947 2943 2946 2952 2950 2957 2962 2970 2975 2978 2980 2987 2990 2993 2995 2995 2997 2999 3002 3004 3004 3006 3007 3009 3007 3010 3010 3011 3005 3015 3014 3015 3015 3017 3018
2916 2917 2919 2922 2926 2928 2930 2933 2937 2938 2932 2940 2941 2947 2952 2957 2965 2970 2974 2979 2982 2988 2989 2992 2994 2996 2998 2997 2999 3002 3004 3005 3006 3002 3005 3001 2997 3003 3004 3005 3006 3007 3010 3011
2906 2908 2910 2913 2916 2919 2920 2924 2926 2928 2926 2932 2936 2941 2944 2954 2960 2965 2969 2972 2976 2977 2982 2987 2989 2990 2993 2992 2993 2995 3000 3001 3003 2999 2995 2993 2994 2996 2999 3000 2998 2999 3001 3001
2897 2899 2900 2903 2906 2910 2911 2912 2918 2920 2922 2920 2924 2927 2941 2946 2950 2954 2959 2964 2966 2974 2979 2982 2982 2987 2988 2989 2986 2984 2989 2993 2997 2992 2988 2989 2985 2990 2996 2993 2989 2994 2995 2995
2888 2888 2889 2891 2894 2898 2900 2900 2909 2911 2913 2916 2920 2926 2934 2940 2945 2949 2952 2958 2962 2971 2974 2974 2979 2982 2984 2985 2983 2983 2984 2987 2986 2985 2986 2984 2978 2985 2989 2990 2987 2986 2988 2989
2879 2876 2874 2874 2879 2884 2889 2894 2900 2905 2909 2916 2922 2926 2931 2933 2939 2943 2947 2953 2961 2966 2968 2970 2975 2977 2979 2980 2979 2981 2982 2979 2980 2981 2983 2981 2976 2977 2982 2981 2982 2980 2980 2981
2869 2865 2867 2869 2872 2877 2885 2891 2895 2902 2909 2916 2921 2925 2927 2928 2936 2941 2947 2954 2957 2960 2957 2965 2972 2972 2974 2975 2974 2976 2977 2977 2978 2976 2973 2971 2972 2973 2975 2975 2976 2974 2975 2975
2863 2863 2864 2867 2868 2874 2879 2884 2892 2900 2905 2912 2916 2920 2925 2931 2937 2937 2945 2951 2953 2950 2955 2960 2965 2967 2970 2969 2968 2970 2970 2971 2970 2971 2965 2969 2969 2968 2969 2969 2969 2969 2970 2970
2862 2861 2863 2868 2870 2875 2880 2883 2890 2896 2901 2907 2915 2920 2927 2932 2936 2939 2942 2943 2946 2949 2953 2957 2960 2963 2964 2963 2963 2963 2963 2960 2960 2960 2960 2962 2964 2963 2964 2962 2963 2964 2964 2964
2865 2866 2869 2872 2876 2880 2884 2887 2892 2897 2905 2911 2915 2920 2926 2930 2934 2936 2938 2941 2946 2950 2952 2953 2956 2960 2961 2958 2958 2954 2960 2958 2958 2954 2957 2954 2956 2956 2956 2956 2958 2958 2957 2959
2869 2871 2875 2879 2883 2887 2891 2894 2897 2901 2905 2910 2916 2918 2922 2926 2929 2930 2934 2939 2943 2946 2947 2948 2950 2955 2955 2953 2951 2953 2954 2953 2952 2947 2949 2950 2949 2949 2950 2953 2953 2953 2951 2953
2873 2876 2881 2885 2888 2890 2894 2897 2901 2904 2907 2910 2912 2916 2919 2921 2924 2927 2930 2934 2936 2940 2944 2943 2944 2948 2948 2944 2941 2946 2948 2948 2948 2946 2946 2945 2945 2944 2947 2948 2947 2948 2947 2948
2878 2882 2885 2888 2891 2895 2897 2898 2901 2903 2906 2909 2910 2914 2918 2918 2919 2922 2926 2929 2932 2936 2938 2938 2939 2941 2939 2934 2936 2940 2941 2939 2940 2941 2940 2940 2940 2941 2942 2943 2943 2943 2943 2943
2879 2883 2887 2890 2892 2894 2896 2899 2902 2903 2908 2907 2910 2912 2912 2914 2915 2919 2920 2925 2928 2932 2931 2933 2936 2932 2928 2929 2933 2934 2935 2936 2937 2936 2936 2935 2936 2937 2938 2938 2939 2937 2937 2938
2882 2885 2889 2890 2892 2896 2897 2899 2899 2900 2900 2902 2905 2906 2910 2910 2911 2914 2919 2923 2927 2926 2925 2927 2924 2920 2924 2928 2930 2930 2931 2932 2933 2932 2932 2932 2933 2933 2934 2934 2933 2933 2933 2934
2884 2886 2889 2891 2893 2896 2898 2899 2899 2899 2897 2895 2896 2899 2901 2906 2910 2913 2917 2918 2920 2919 2918 2919 2918 2916 2919 2924 2925 2926 2928 2929 2930 2929 2929 2929 2930 2930 2930 2930 2930 2930 2930 2931
2886 2889 2891 2893 2896 2897 2898 2896 2897 2895 2895 2894 2896 2897 2900 2901 2904 2908 2911 2911 2913 2911 2907 2914 2913 2914 2916 2918 2920 2922 2923 2925 2926 2926 2927 2927 2927 2926 2926 2927 2927 2928 2928 2928
2888 2891 2893 2895 2896 2896 2896 2895 2895 2893 2891 2892 2893 2893 2896 2897 2898 2902 2905 2908 2909 2910 2910 2911 2910 2912 2913 2915 2917 2918 2920 2922 2923 2924 2924 2924 2924 2924 2924 2925 2925 2925 2925 2926
2889 2892 2893 2893 2892 2892 2893 2892 2891 2893 2893 2893 2894 2895 2895 2896 2899 2902 2905 2908 2909 2909 2909 2909 2907 2910 2911 2912 2913 2915 2918 2919 2921 2921 2922 2923 2923 2923 2923 2923 2923 2923 2923 2924
2891 2892 2892 2890 2890 2890 2891 2891 2893 2894 2894 2894 2896 2898 2899 2900 2903 2904 2905 2906 2907 2907 2907 2905 2907 2907 2908 2910 2912 2914 2916 2917 2919 2920 2921 2921 2922 2922 2922 2922 2922 2922 2922 2922
2892 2891 2890 2889 2889 2889 2889 2891 2892 2893 2894 2896 2898 2899 2900 2901 2902 2903 2903 2905 2905 2904 2903 2904 2904 2905 2906 2908 2910 2912 2914 2916 2917 2918 2919 2920 2920 2921 2921 2921 2921 2921 2921 2921
2891 2890 2889 2890 2890 2889 2890 2891 2892 2894 2895 2897 2898 2899 2900 2901 2902 2902 2901 2902 2901 2901 2902 2902 2902 2904 2906 2908 2910 2912 2913 2914 2916 2917 2918 2919 2919 2919 2920 2920 2920 2920 2919 2919